Погода в Натчезе

США     31°33′38″N   91°24′21″W
темп.,
°C
ветер,
м/с
пор.,
м/с
влажн.,
%
обл.,
%
осадки,
мм/ч
давл.,
гПа
погр.,
м
31 июля, сб
сб3101:00+25ююв11866 0.0 101711
04:00+25зюз11905 0.0 101711
07:00+25зюз12925 0.0 101744
10:00+31з226510 0.0 1018660
13:00+35зсз224891 0.0 10171963
16:00+36зсз324011 0.0 10152425
19:00+32з11580 0.0 101412
22:00+27ююз25852 0.0 1015123
1 августа, вс
вс101:00+25юз28875 0.0 1015212
04:00+24юз27912 0.0 1015185
07:00+24юз24902 0.0 1016116
10:00+31зюз34635 0.0 1016612
13:00+35з33495 0.0 10161527
16:00+36юз224315 0.0 10132122
19:00+22ссз31290100 1.9 1014271
22:00+22ююв1195100 2.0 101614
2 августа, пн
пн201:00+22всв0094100 2.0 101511
04:00+21юв119391 0.1 101511
07:00+22ссз119521 1.7 101619
10:00+27сз117538 0.3 1016459
13:00+32сз235525 0.3 10151294
16:00+33зсз225456 0.2 10131579
19:00+27с3586100 2.1 101273
22:00+23зсз1297100 4.6 101534
3 августа, вт
вт301:00+22св2698100 5.4 1014157
04:00+22всв249844 0.3 101392
07:00+22св129741 0.3 101459
10:00+27ссв247429 0.0 1014659
13:00+32ссв44492 0.0 10141774
16:00+32с55420 0.0 10122087
19:00+28ссв59600 0.0 1013681
22:00+23св310700 0.0 1014265
4 августа, ср
ср401:00+20св29790 0.0 1014185
04:00+18св2680100 0.0 101498
07:00+18ссв2682100 0.0 1016131
10:00+25с365862 0.0 1017571
13:00+29с46424 0.0 10161714
16:00+30с56390 0.0 10142120
19:00+26ссз48610 0.0 1015449
22:00+21ссв29710 0.0 1016182